Location: Stockholm
(59.3330°N, 18.0500°E)
Time: 03:11:03
(UTC+02:00)

NOAA 18 - Pass Details

Date: 06 April 2023
Orbit: 838 x 860 km, 98.9° (Epoch: 31 May)

Event Time Altitude Azimuth Distance (km) Brightness Sun altitude
Exits shadow 23:59:19 15° 237° (WSW) 2,158 7.1 -23.6°
Maximum altitude 00:02:05 21° 274° (W) 1,839 7.1 -23.7°
Drops below altitude 10° 00:06:15 10° 322° (NW) 2,510 8.5 -23.8°
Sets 00:09:15 0° 338° (NNW) 3,450 9.7 -23.9°
